AAL1018 KPHX-KDFW

Flight info

Callsign AAL1018
Flight time 1h 32m
Altitude 37000
Route BROAK1 MAXXO TXO TURKI VKTRY2
Aircraft B738/M-SDE2E3FGHIRWXY/LB1

Departure

Time 2026-05-04 04:16
Airport Phoenix Sky Harbor International Airport (KPHX)

Arrival

Time 2026-05-04 05:48
Airport Dallas Fort Worth International Airport (KDFW)
Time Latitude Longitude Altitude Speed Heading
2026-05-04 03:50 33.43758 -111.99879 1123 ft 0 kts 270°
2026-05-04 04:00 33.43758 -111.99862 1086 ft 2 kts 270°
2026-05-04 04:00 33.43758 -111.99842 1123 ft 2 kts 270°
2026-05-04 04:00 33.43758 -111.99822 1116 ft 2 kts 282°
2026-05-04 04:01 33.43751 -111.99805 1120 ft 2 kts 346°
2026-05-04 04:01 33.43743 -111.99804 1115 ft 1 kts
2026-05-04 04:06 33.43747 -111.99803 1114 ft 2 kts
2026-05-04 04:06 33.43757 -111.99802 1116 ft 3 kts 11°
2026-05-04 04:06 33.43779 -111.99787 1122 ft 5 kts 32°
2026-05-04 04:07 33.43814 -111.99780 1123 ft 6 kts
2026-05-04 04:07 33.43859 -111.99780 1118 ft 7 kts
2026-05-04 04:07 33.43891 -111.99775 1120 ft 3 kts 25°
2026-05-04 04:07 33.43902 -111.99750 1119 ft 4 kts 76°
2026-05-04 04:08 33.43904 -111.99724 1123 ft 5 kts 92°
2026-05-04 04:08 33.43904 -111.99673 1123 ft 7 kts 90°
2026-05-04 04:08 33.43904 -111.99603 1123 ft 9 kts 90°
2026-05-04 04:08 33.43903 -111.99518 1123 ft 11 kts 90°
2026-05-04 04:09 33.43903 -111.99420 1123 ft 12 kts 89°
2026-05-04 04:09 33.43904 -111.99315 1123 ft 13 kts 90°
2026-05-04 04:09 33.43890 -111.99232 1117 ft 10 kts 143°
2026-05-04 04:09 33.43822 -111.99226 1119 ft 10 kts 180°
2026-05-04 04:10 33.43753 -111.99226 1117 ft 10 kts 180°
2026-05-04 04:10 33.43686 -111.99226 1118 ft 10 kts 180°
2026-05-04 04:10 33.43621 -111.99226 1119 ft 9 kts 180°
2026-05-04 04:10 33.43556 -111.99226 1118 ft 9 kts 180°
2026-05-04 04:11 33.43493 -111.99226 1118 ft 9 kts 180°
2026-05-04 04:11 33.43429 -111.99242 1119 ft 10 kts 203°
2026-05-04 04:11 33.43363 -111.99246 1118 ft 10 kts 179°
2026-05-04 04:11 33.43293 -111.99246 1118 ft 10 kts 180°
2026-05-04 04:12 33.43222 -111.99250 1119 ft 10 kts 197°
2026-05-04 04:12 33.43197 -111.99274 1118 ft 0 kts 223°
2026-05-04 04:14 33.43197 -111.99275 1118 ft 1 kts 223°
2026-05-04 04:14 33.43189 -111.99284 1117 ft 2 kts 223°
2026-05-04 04:15 33.43172 -111.99303 1118 ft 4 kts 223°
2026-05-04 04:15 33.43143 -111.99334 1118 ft 7 kts 211°
2026-05-04 04:15 33.43105 -111.99363 1121 ft 7 kts 255°
2026-05-04 04:15 33.43103 -111.99427 1115 ft 8 kts 270°
2026-05-04 04:16 33.43102 -111.99767 1115 ft 81 kts 270°
2026-05-04 04:16 33.43106 -112.00728 1124 ft 150 kts 271°
2026-05-04 04:16 33.43098 -112.02200 1281 ft 196 kts 268°
2026-05-04 04:16 33.43077 -112.03856 1998 ft 206 kts 265°
2026-05-04 04:17 33.43023 -112.05575 2853 ft 203 kts 266°
2026-05-04 04:17 33.42865 -112.07311 3380 ft 218 kts 250°
2026-05-04 04:17 33.42306 -112.09069 3789 ft 233 kts 247°
2026-05-04 04:17 33.41724 -112.10917 4390 ft 240 kts 247°
2026-05-04 04:18 33.41146 -112.12796 5053 ft 250 kts 247°
2026-05-04 04:18 33.40527 -112.14799 5683 ft 260 kts 244°
2026-05-04 04:18 33.39498 -112.16556 6442 ft 261 kts 219°
2026-05-04 04:18 33.37923 -112.17627 7220 ft 264 kts 197°
2026-05-04 04:19 33.36100 -112.17903 8014 ft 268 kts 175°
2026-05-04 04:19 33.34263 -112.17401 8799 ft 274 kts 165°
2026-05-04 04:19 33.32430 -112.16739 9652 ft 276 kts 164°
2026-05-04 04:19 33.30571 -112.16063 10343 ft 284 kts 165°
2026-05-04 04:20 33.28705 -112.15023 10541 ft 313 kts 144°
2026-05-04 04:20 33.27074 -112.13189 10998 ft 328 kts 137°
2026-05-04 04:20 33.25510 -112.11165 11641 ft 337 kts 127°
2026-05-04 04:20 33.24548 -112.08580 12370 ft 347 kts 106°
2026-05-04 04:21 33.24412 -112.05673 13085 ft 358 kts 86°
2026-05-04 04:21 33.24765 -112.02724 13756 ft 365 kts 83°
2026-05-04 04:21 33.25173 -111.99707 14330 ft 371 kts 84°
2026-05-04 04:21 33.25565 -111.96631 14960 ft 376 kts 84°
2026-05-04 04:22 33.25979 -111.93534 15580 ft 382 kts 78°
2026-05-04 04:22 33.26982 -111.90559 16157 ft 390 kts 63°
2026-05-04 04:22 33.28267 -111.87689 16785 ft 394 kts 62°
2026-05-04 04:22 33.29585 -111.84790 17398 ft 399 kts 62°
2026-05-04 04:23 33.30909 -111.81855 17994 ft 404 kts 62°
2026-05-04 04:23 33.32236 -111.78878 18513 ft 409 kts 62°
2026-05-04 04:23 33.33572 -111.75844 19054 ft 413 kts 62°
2026-05-04 04:23 33.34911 -111.72783 19621 ft 417 kts 62°
2026-05-04 04:24 33.36256 -111.69699 20162 ft 421 kts 62°
2026-05-04 04:24 33.37613 -111.66578 20674 ft 425 kts 62°
2026-05-04 04:24 33.38984 -111.63424 21181 ft 429 kts 61°
2026-05-04 04:24 33.40367 -111.60241 21680 ft 433 kts 61°
2026-05-04 04:25 33.41760 -111.57033 22186 ft 437 kts 61°
2026-05-04 04:25 33.43138 -111.53771 22650 ft 442 kts 64°
2026-05-04 04:25 33.44321 -111.50360 23131 ft 446 kts 68°
2026-05-04 04:25 33.45391 -111.46858 23584 ft 450 kts 69°
2026-05-04 04:26 33.46439 -111.43311 23953 ft 454 kts 69°
2026-05-04 04:26 33.47511 -111.39739 24320 ft 457 kts 69°
2026-05-04 04:26 33.48612 -111.36151 24739 ft 460 kts 68°
2026-05-04 04:26 33.49738 -111.32546 25118 ft 464 kts 67°
2026-05-04 04:27 33.50883 -111.28911 25456 ft 468 kts 67°
2026-05-04 04:27 33.52036 -111.25252 25860 ft 470 kts 66°
2026-05-04 04:27 33.53171 -111.21636 26305 ft 472 kts 67°
2026-05-04 04:27 33.54280 -111.17907 26594 ft 478 kts 69°
2026-05-04 04:28 33.55342 -111.14132 27046 ft 479 kts 69°
2026-05-04 04:28 33.56394 -111.10315 27266 ft 486 kts 69°
2026-05-04 04:28 33.57455 -111.06448 27545 ft 490 kts 69°
2026-05-04 04:28 33.58525 -111.02563 27959 ft 491 kts 69°
2026-05-04 04:29 33.59602 -110.98671 28328 ft 493 kts 69°
2026-05-04 04:29 33.60691 -110.94752 28657 ft 497 kts 69°
2026-05-04 04:29 33.61789 -110.90813 28961 ft 500 kts 69°
2026-05-04 04:29 33.62893 -110.86845 29303 ft 503 kts 69°
2026-05-04 04:30 33.64004 -110.82852 29611 ft 506 kts 69°
2026-05-04 04:30 33.65119 -110.78837 29896 ft 509 kts 69°
2026-05-04 04:30 33.66241 -110.74793 30170 ft 511 kts 69°
2026-05-04 04:30 33.67364 -110.70733 30404 ft 514 kts 69°
2026-05-04 04:31 33.68493 -110.66647 30607 ft 517 kts 68°
2026-05-04 04:31 33.69623 -110.62547 30891 ft 518 kts 68°
2026-05-04 04:31 33.70758 -110.58428 31159 ft 520 kts 68°
2026-05-04 04:31 33.71895 -110.54293 31410 ft 522 kts 68°
2026-05-04 04:32 33.73033 -110.50149 31676 ft 523 kts 68°
2026-05-04 04:32 33.74172 -110.45994 32009 ft 523 kts 68°
2026-05-04 04:32 33.75305 -110.41856 32386 ft 521 kts 68°
2026-05-04 04:32 33.76433 -110.37730 32774 ft 519 kts 68°
2026-05-04 04:33 33.77561 -110.33600 33075 ft 520 kts 68°
2026-05-04 04:33 33.78687 -110.29478 33414 ft 519 kts 68°
2026-05-04 04:33 33.79813 -110.25346 33656 ft 521 kts 68°
2026-05-04 04:33 33.80939 -110.21211 33964 ft 520 kts 68°
2026-05-04 04:34 33.82060 -110.17085 34269 ft 519 kts 68°
2026-05-04 04:34 33.83180 -110.12961 34505 ft 519 kts 68°
2026-05-04 04:34 33.84301 -110.08823 34703 ft 521 kts 68°
2026-05-04 04:34 33.85421 -110.04685 34957 ft 520 kts 68°
2026-05-04 04:35 33.86539 -110.00547 35222 ft 520 kts 68°
2026-05-04 04:35 33.87654 -109.96412 35432 ft 520 kts 68°
2026-05-04 04:35 33.88772 -109.92262 35621 ft 522 kts 68°
2026-05-04 04:35 33.89887 -109.88114 35884 ft 521 kts 68°
2026-05-04 04:36 33.91001 -109.83966 36120 ft 521 kts 67°
2026-05-04 04:36 33.92115 -109.79811 36307 ft 522 kts 67°
2026-05-04 04:36 33.93231 -109.75645 36500 ft 523 kts 67°
2026-05-04 04:36 33.94345 -109.71477 36734 ft 523 kts 67°
2026-05-04 04:37 33.97687 -109.58934 37004 ft 525 kts 68°
2026-05-04 04:37 33.98796 -109.54757 37018 ft 523 kts 68°
2026-05-04 04:38 34.00981 -109.46506 37085 ft 517 kts 68°
2026-05-04 04:38 34.03156 -109.38274 37143 ft 515 kts 68°
2026-05-04 04:39 34.05338 -109.30007 37163 ft 519 kts 68°
2026-05-04 04:39 34.07533 -109.21664 37179 ft 524 kts 68°
2026-05-04 04:40 34.09735 -109.13252 37127 ft 527 kts 68°
2026-05-04 04:40 34.11927 -109.04848 37043 ft 521 kts 68°
2026-05-04 04:41 34.14079 -108.96567 36985 ft 515 kts 68°
2026-05-04 04:41 34.16223 -108.88316 36931 ft 515 kts 68°
2026-05-04 04:42 34.18359 -108.80068 36929 ft 515 kts 68°
2026-05-04 04:42 34.20486 -108.71822 36912 ft 514 kts 68°
2026-05-04 04:43 34.22604 -108.63584 36918 ft 513 kts 68°
2026-05-04 04:43 34.24714 -108.55348 36898 ft 512 kts 68°
2026-05-04 04:44 34.26815 -108.47129 36912 ft 512 kts 68°
2026-05-04 04:44 34.28910 -108.38904 36919 ft 511 kts 68°
2026-05-04 04:45 34.30999 -108.30680 36904 ft 511 kts 68°
2026-05-04 04:47 34.38219 -108.01953 36896 ft 510 kts 72°
2026-05-04 04:47 34.38700 -107.97680 36902 ft 515 kts 85°
2026-05-04 04:47 34.38766 -107.93353 36916 ft 514 kts 88°
2026-05-04 04:48 34.38729 -107.84703 36906 ft 513 kts 88°
2026-05-04 04:49 34.38840 -107.63184 36913 ft 509 kts 87°
2026-05-04 04:49 34.38928 -107.54620 36915 ft 508 kts 87°
2026-05-04 04:50 34.39006 -107.46072 36907 ft 507 kts 87°
2026-05-04 04:50 34.39074 -107.37543 36907 ft 506 kts 87°
2026-05-04 04:51 34.39134 -107.29085 36896 ft 505 kts 87°
2026-05-04 04:51 34.39189 -107.20591 36910 ft 504 kts 87°
2026-05-04 04:52 34.39239 -107.12112 36911 ft 503 kts 87°
2026-05-04 04:52 34.39283 -107.03642 36903 ft 503 kts 87°
2026-05-04 04:53 34.39321 -106.95191 36913 ft 502 kts 88°
2026-05-04 04:53 34.39352 -106.86751 36924 ft 501 kts 88°
2026-05-04 04:54 34.39379 -106.78327 36927 ft 500 kts 88°
2026-05-04 04:54 34.39400 -106.69911 36930 ft 500 kts 88°
2026-05-04 04:55 34.39613 -106.61520 36937 ft 498 kts 84°
2026-05-04 04:55 34.40016 -106.53158 36944 ft 497 kts 84°
2026-05-04 04:56 34.40406 -106.44811 36961 ft 496 kts 84°
2026-05-04 04:56 34.40696 -106.37882 36963 ft 495 kts 84°
2026-05-04 04:57 34.41022 -106.29561 36962 ft 494 kts 85°
2026-05-04 04:57 34.41337 -106.21249 36966 ft 494 kts 85°
2026-05-04 04:58 34.41647 -106.12957 36979 ft 492 kts 84°
2026-05-04 04:58 34.41952 -106.04681 36982 ft 491 kts 84°
2026-05-04 04:59 34.42252 -105.96423 36984 ft 490 kts 85°
2026-05-04 04:59 34.42546 -105.88180 36987 ft 490 kts 85°
2026-05-04 05:00 34.42856 -105.79306 36980 ft 489 kts 85°
2026-05-04 05:01 34.43719 -105.53553 36978 ft 491 kts 85°
2026-05-04 05:01 34.43986 -105.45244 36960 ft 496 kts 85°
2026-05-04 05:02 34.44812 -105.18443 36951 ft 506 kts 85°
2026-05-04 05:02 34.45762 -104.84583 36854 ft 498 kts 85°
2026-05-04 05:03 34.46604 -104.51490 36846 ft 486 kts 85°
2026-05-04 05:04 34.47932 -103.90283 36878 ft 501 kts 85°
2026-05-04 05:04 34.48235 -103.73430 36792 ft 488 kts 85°
2026-05-04 05:06 34.49334 -102.98925 37012 ft 496 kts 86°
2026-05-04 05:06 34.49485 -102.85327 36964 ft 489 kts 86°
2026-05-04 05:07 34.48893 -102.76345 36969 ft 488 kts 95°
2026-05-04 05:07 34.45331 -102.43833 36961 ft 488 kts 95°
2026-05-04 05:09 34.32445 -101.26382 36583 ft 481 kts 96°
2026-05-04 05:09 34.31984 -101.22373 36757 ft 482 kts 96°
2026-05-04 05:10 34.31050 -101.14276 36900 ft 490 kts 96°
2026-05-04 05:10 34.30092 -101.06028 36913 ft 500 kts 96°
2026-05-04 05:11 34.29108 -100.97613 36914 ft 510 kts 97°
2026-05-04 05:11 34.28104 -100.89098 36912 ft 519 kts 97°
2026-05-04 05:12 34.27070 -100.80365 36905 ft 528 kts 97°
2026-05-04 05:12 34.26015 -100.71511 36907 ft 536 kts 97°
2026-05-04 05:13 34.24939 -100.62543 36908 ft 540 kts 97°
2026-05-04 05:13 34.23852 -100.53547 36921 ft 542 kts 97°
2026-05-04 05:14 34.22756 -100.44517 36929 ft 541 kts 97°
2026-05-04 05:14 34.21663 -100.35569 36934 ft 540 kts 97°
2026-05-04 05:15 34.20562 -100.26631 36936 ft 537 kts 98°
2026-05-04 05:15 34.19705 -100.22226 36929 ft 536 kts 109°
2026-05-04 05:15 34.18483 -100.17990 36943 ft 534 kts 111°
2026-05-04 05:16 34.15787 -100.09638 36916 ft 532 kts 112°
2026-05-04 05:16 34.13135 -100.01309 36914 ft 531 kts 111°
2026-05-04 05:17 34.10586 -99.92969 36916 ft 528 kts 111°
2026-05-04 05:17 34.08100 -99.84746 36917 ft 523 kts 111°
2026-05-04 05:18 34.05595 -99.76502 36627 ft 526 kts 111°
2026-05-04 05:18 34.04331 -99.72363 36106 ft 525 kts 111°
2026-05-04 05:18 34.03070 -99.68241 35559 ft 524 kts 111°
2026-05-04 05:19 34.01807 -99.64119 34955 ft 525 kts 111°
2026-05-04 05:19 34.00538 -99.59983 34390 ft 525 kts 111°
2026-05-04 05:19 33.99275 -99.55870 33969 ft 521 kts 111°
2026-05-04 05:19 33.98020 -99.51786 33448 ft 518 kts 111°
2026-05-04 05:20 33.96770 -99.47730 32995 ft 514 kts 111°
2026-05-04 05:20 33.95525 -99.43709 32630 ft 509 kts 111°
2026-05-04 05:20 33.94306 -99.39788 32196 ft 505 kts 111°
2026-05-04 05:20 33.93075 -99.35839 31767 ft 502 kts 111°
2026-05-04 05:21 33.91848 -99.31907 31345 ft 498 kts 111°
2026-05-04 05:21 33.90631 -99.28011 30920 ft 495 kts 110°
2026-05-04 05:21 33.89422 -99.24142 30501 ft 493 kts 110°
2026-05-04 05:21 33.88218 -99.20293 30076 ft 491 kts 110°
2026-05-04 05:22 33.87019 -99.16463 29596 ft 488 kts 110°
2026-05-04 05:22 33.85826 -99.12656 29120 ft 484 kts 110°
2026-05-04 05:22 33.84641 -99.08881 28668 ft 480 kts 110°
2026-05-04 05:22 33.83466 -99.05140 28230 ft 476 kts 110°
2026-05-04 05:23 33.82300 -99.01433 27802 ft 472 kts 110°
2026-05-04 05:23 33.81141 -98.97756 27382 ft 468 kts 110°
2026-05-04 05:23 33.79993 -98.94115 26954 ft 464 kts 111°
2026-05-04 05:23 33.78852 -98.90502 26540 ft 460 kts 111°
2026-05-04 05:24 33.77721 -98.86922 26133 ft 456 kts 111°
2026-05-04 05:24 33.76598 -98.83372 25730 ft 453 kts 111°
2026-05-04 05:24 33.75483 -98.79852 25322 ft 449 kts 111°
2026-05-04 05:24 33.74376 -98.76363 24916 ft 445 kts 111°
2026-05-04 05:25 33.73287 -98.72948 24519 ft 442 kts 111°
2026-05-04 05:25 33.72173 -98.69472 24116 ft 438 kts 111°
2026-05-04 05:25 33.71080 -98.66067 23688 ft 436 kts 111°
2026-05-04 05:25 33.69993 -98.62685 23208 ft 433 kts 111°
2026-05-04 05:26 33.68916 -98.59327 22757 ft 429 kts 111°
2026-05-04 05:26 33.67858 -98.55996 22323 ft 425 kts 111°
2026-05-04 05:26 33.66820 -98.52713 21866 ft 415 kts 111°
2026-05-04 05:26 33.65811 -98.49520 21476 ft 405 kts 111°
2026-05-04 05:27 33.64813 -98.46368 21086 ft 402 kts 111°
2026-05-04 05:28 33.57985 -98.24924 18347 ft 388 kts 112°
2026-05-04 05:29 33.57023 -98.21915 17918 ft 385 kts 112°
2026-05-04 05:29 33.56065 -98.18925 17504 ft 383 kts 112°
2026-05-04 05:29 33.55111 -98.15959 17119 ft 380 kts 112°
2026-05-04 05:29 33.54163 -98.13020 16742 ft 376 kts 113°
2026-05-04 05:31 33.47738 -97.93147 14218 ft 355 kts 114°
2026-05-04 05:31 33.46848 -97.90399 13878 ft 352 kts 113°
2026-05-04 05:32 33.45970 -97.87670 13491 ft 350 kts 113°
2026-05-04 05:32 33.45100 -97.84963 13118 ft 347 kts 113°
2026-05-04 05:32 33.44237 -97.82281 12763 ft 343 kts 113°
2026-05-04 05:33 33.42535 -97.76996 12082 ft 337 kts 113°
2026-05-04 05:33 33.41696 -97.74395 11752 ft 334 kts 113°
2026-05-04 05:33 33.40862 -97.71813 11425 ft 331 kts 113°
2026-05-04 05:33 33.40045 -97.69284 11103 ft 328 kts 113°
2026-05-04 05:34 33.39224 -97.66749 10784 ft 325 kts 113°
2026-05-04 05:34 33.38389 -97.64246 10459 ft 321 kts 118°
2026-05-04 05:34 33.37210 -97.62010 10147 ft 316 kts 129°
2026-05-04 05:34 33.35900 -97.59942 9994 ft 303 kts 130°
2026-05-04 05:35 33.34657 -97.57996 9650 ft 296 kts 130°
2026-05-04 05:35 33.33415 -97.56035 9205 ft 292 kts 130°
2026-05-04 05:35 33.32213 -97.54111 8876 ft 286 kts 129°
2026-05-04 05:35 33.31032 -97.52204 8576 ft 284 kts 129°
2026-05-04 05:36 33.29861 -97.50308 8289 ft 283 kts 130°
2026-05-04 05:36 33.28698 -97.48423 8003 ft 281 kts 130°
2026-05-04 05:36 33.27576 -97.46512 7697 ft 282 kts 121°
2026-05-04 05:36 33.27057 -97.44246 7256 ft 293 kts 97°
2026-05-04 05:37 33.26929 -97.41814 6890 ft 294 kts 95°
2026-05-04 05:37 33.26821 -97.39373 6588 ft 293 kts 95°
2026-05-04 05:37 33.26713 -97.36954 6279 ft 289 kts 96°
2026-05-04 05:38 33.26488 -97.32293 5685 ft 274 kts 97°
2026-05-04 05:38 33.26371 -97.30035 5428 ft 272 kts 97°
2026-05-04 05:38 33.26253 -97.27790 5187 ft 267 kts 98°
2026-05-04 05:38 33.26136 -97.25583 5083 ft 265 kts 98°
2026-05-04 05:39 33.26003 -97.23388 5018 ft 264 kts 100°
2026-05-04 05:39 33.25545 -97.19075 4994 ft 259 kts 103°
2026-05-04 05:39 33.25292 -97.16936 5005 ft 261 kts 103°
2026-05-04 05:40 33.24775 -97.12644 4961 ft 259 kts 111°
2026-05-04 05:40 33.23874 -97.10938 4844 ft 234 kts 149°
2026-05-04 05:40 33.22498 -97.10080 4796 ft 215 kts 167°
2026-05-04 05:41 33.21093 -97.09644 4731 ft 203 kts 173°
2026-05-04 05:41 33.19756 -97.09315 4669 ft 190 kts 174°
2026-05-04 05:41 33.18506 -97.09013 4569 ft 178 kts 174°
2026-05-04 05:41 33.17298 -97.08720 4298 ft 176 kts 174°
2026-05-04 05:42 33.16105 -97.08429 4001 ft 175 kts 174°
2026-05-04 05:42 33.14920 -97.08137 3762 ft 172 kts 174°
2026-05-04 05:42 33.13767 -97.07849 3635 ft 167 kts 174°
2026-05-04 05:42 33.12637 -97.07565 3557 ft 167 kts 174°
2026-05-04 05:43 33.11496 -97.07278 3483 ft 169 kts 173°
2026-05-04 05:43 33.10333 -97.06985 3404 ft 173 kts 173°
2026-05-04 05:43 33.09158 -97.06686 3333 ft 172 kts 173°
2026-05-04 05:45 33.01457 -97.05414 2599 ft 129 kts 184°
2026-05-04 05:45 33.00550 -97.05418 2405 ft 130 kts 184°
2026-05-04 05:47 32.94443 -97.05448 1233 ft 147 kts 181°
2026-05-04 05:47 32.93412 -97.05452 1032 ft 148 kts 180°
2026-05-04 05:47 32.92401 -97.05454 836 ft 148 kts 181°
2026-05-04 05:48 32.91376 -97.05461 646 ft 144 kts 180°
2026-05-04 05:48 32.90436 -97.05468 602 ft 122 kts 180°
2026-05-04 05:48 32.89738 -97.05473 613 ft 79 kts 180°
2026-05-04 05:48 32.89446 -97.05474 603 ft 32 kts 180°
2026-05-04 05:49 32.89288 -97.05438 599 ft 23 kts 159°
2026-05-04 05:49 32.89151 -97.05350 595 ft 22 kts 152°
2026-05-04 05:49 32.89076 -97.05302 592 ft 5 kts 152°
2026-05-04 05:49 32.89046 -97.05264 589 ft 8 kts 106°
2026-05-04 05:51 32.89059 -97.04772 591 ft 5 kts 19°
2026-05-04 05:51 32.89095 -97.04770 591 ft 5 kts
2026-05-04 05:52 32.89130 -97.04770 592 ft 5 kts
2026-05-04 05:52 32.89169 -97.04770 593 ft 6 kts
2026-05-04 05:52 32.89220 -97.04769 594 ft 9 kts
2026-05-04 05:52 32.89297 -97.04768 593 ft 13 kts
2026-05-04 05:53 32.89393 -97.04768 593 ft 10 kts 360°
2026-05-04 05:54 32.89491 -97.04457 592 ft 1 kts 26°
2026-05-04 05:55 32.89499 -97.04453 592 ft 2 kts 21°
2026-05-04 05:55 32.89510 -97.04453 592 ft 1 kts 359°
2026-05-04 05:55 32.89511 -97.04453 592 ft 0 kts 359°